Tracking 18980 objects as of 19-Feb-2018
HD Live streaming from Space Station
objects crossing your sky now

SL-12 R/B(AUX MOTOR) DEB

Track SL-12 R/B(AUX MOTOR) DEB now!
10-day predictions


NORAD ID: 41807
Int'l Code: 2006-062M
Perigee: 353.2 km
Apogee: 18,794.8 km
Inclination: 64.7 °
Period: 334.0 minutes
Semi major axis: 15945 km
RCS: Unknown
Launch date: December 25, 2006
Source: Commonwealth of Independent States (former USSR) (CIS)
Launch site: TYURATAM MISSILE AND SPACE COMPLEX (TTMTR)

Note: This is SATELLITE DEBRIS
aabbcc
Your satellite tracking list
Your tracking list is empty




NASA's NSSDC Master Catalog

Two Line Element Set (TLE):
1 41807U 06062M   18049.05863782 +.00003921 +00000-0 +18948-2 0  9992
2 41807 064.6954 040.6141 5782860 006.7613 358.4800 04.31186168024250
Source of the keplerian elements: AFSPC